Tracking 28790 objects as of 18-Apr-2024
HD Live streaming from Space Station
objects crossing your sky now

COSMOS 1693

Track COSMOS 1693 now!
10-day predictions
COSMOS 1693 is classified as:


NORAD ID: 16141
Int'l Code: 1985-094D
Perigee: 1,400.1 km
Apogee: 1,424.2 km
Inclination: 82.6 °
Period: 113.9 minutes
Semi major axis: 7783 km
RCS: 0.2624 m2 (medium)
Launch date: October 9, 1985
Source: Commonwealth of Independent States (former USSR) (CIS)
Launch site: PLESETSK MISSILE AND SPACE COMPLEX (PKMTR)
Your satellite tracking list
Your tracking list is empty




NASA's NSSDC Master Catalog

Two Line Element Set (TLE):
1 16141U 85094D   24109.26618628  .00000007  00000-0 -19102-4 0  9999
2 16141  82.6140  36.2065 0015494  36.6256  82.6132 12.64354368777712
Source of the keplerian elements: AFSPC